{"data":{"norad_id":48412,"intl_designator":"2021-038BM","name":"STARLINK-2581","alt_names":[],"object_type":"PAYLOAD","status":"ACTIVE","operator":null,"country":"US","launch_date":"2021-05-04","launch_site_code":"AFETR","launch_vehicle":null,"mission":null,"orbit_class":"UNKNOWN","rcs_meters":null,"size_class":null,"mass_kg":null,"dimensions":null,"purposes":["comms"],"wikipedia_slug":null,"has_3d_model":false,"image_url":null,"decayed_at":null,"tle_current":{"epoch":"2026-09-20T01:04:54.485184Z","epoch_age_seconds":72959,"freshness":"FRESH","line1":"1 48412U 21038BM  26263.04507506  .00014100  00000+0  46505-3 0  9997","line2":"2 48412  53.1582 111.9638 0001339  94.8271 265.2883 15.31714305297722","mean_motion":15.31714305,"eccentricity":0.0001339,"inclination_deg":53.1582,"raan_deg":111.9638,"arg_perigee_deg":94.8271,"mean_anomaly_deg":265.2883,"bstar":0.00046505,"rev_number":29772,"period_min":94.012309952279,"perigee_km":469.78029417701,"apogee_km":471.61441201677,"semimajor_km":6848.8343530969,"source":"CELESTRAK","updated_at":"2026-09-20T09:00:39.122723Z"}}}